KMM308 LMML-EDDM

Flight info

Callsign KMM308
Flight time N/A
Altitude 36000
Route GZO M622 SOPIR DCT MABOX DCT ADEXI DCT SUKOM DCT LUMAV DCT ALBET DCT VADIK DCT DIKEM DCT SUMIR DCT NAXAV DCT SOTOV/N0401F240 T101 BETOS BETOS1B
Aircraft A320/M-SDE3FGHIRWY/LB1

Departure

Time 2026-05-07 14:02
Airport Malta International Airport (LMML)

Arrival

Time N/A
Airport Munich Airport (EDDM)
Time Latitude Longitude Altitude Speed Heading
2026-05-07 13:36 35.84859 14.49455 259 ft 0 kts 360°
2026-05-07 13:55 35.84858 14.49455 259 ft 1 kts 360°
2026-05-07 13:55 35.84847 14.49456 259 ft 3 kts 360°
2026-05-07 13:55 35.84827 14.49456 259 ft 3 kts 360°
2026-05-07 13:56 35.84809 14.49456 259 ft 3 kts 16°
2026-05-07 13:56 35.84798 14.49450 259 ft 3 kts 85°
2026-05-07 13:56 35.84801 14.49432 259 ft 2 kts 133°
2026-05-07 13:56 35.84809 14.49423 259 ft 3 kts 134°
2026-05-07 13:57 35.84819 14.49410 259 ft 1 kts 135°
2026-05-07 13:57 35.84820 14.49409 259 ft 0 kts 135°
2026-05-07 13:59 35.84804 14.49428 259 ft 11 kts 135°
2026-05-07 13:59 35.84745 14.49500 259 ft 11 kts 135°
2026-05-07 13:59 35.84692 14.49560 259 ft 9 kts 145°
2026-05-07 14:00 35.84634 14.49578 259 ft 10 kts 182°
2026-05-07 14:00 35.84571 14.49529 259 ft 15 kts 187°
2026-05-07 14:00 35.84475 14.49569 259 ft 15 kts 194°
2026-05-07 14:00 35.84449 14.49457 259 ft 16 kts 277°
2026-05-07 14:01 35.84478 14.49325 259 ft 17 kts 305°
2026-05-07 14:01 35.84639 14.49122 259 ft 67 kts 314°
2026-05-07 14:01 35.85139 14.48507 273 ft 132 kts 316°
2026-05-07 14:01 35.85887 14.47580 437 ft 165 kts 312°
2026-05-07 14:02 35.86742 14.46586 1051 ft 168 kts 307°
2026-05-07 14:02 35.87478 14.45500 1780 ft 163 kts 301°
2026-05-07 14:02 35.88185 14.44339 2344 ft 174 kts 301°
2026-05-07 14:02 35.88933 14.43107 2862 ft 190 kts 300°
2026-05-07 14:03 35.89776 14.41725 3149 ft 214 kts 302°
2026-05-07 14:03 35.90718 14.40211 3443 ft 236 kts 302°
2026-05-07 14:03 35.91759 14.38569 4003 ft 247 kts 303°
2026-05-07 14:03 35.92838 14.36895 4750 ft 251 kts 303°
2026-05-07 14:04 35.93946 14.35214 5516 ft 254 kts 304°
2026-05-07 14:04 35.95073 14.33525 6279 ft 257 kts 304°
2026-05-07 14:04 35.96222 14.31812 7020 ft 260 kts 304°
2026-05-07 14:04 35.97380 14.30082 7774 ft 262 kts 304°
2026-05-07 14:05 35.98546 14.28333 8535 ft 265 kts 304°
2026-05-07 14:05 35.99724 14.26561 9286 ft 268 kts 304°
2026-05-07 14:05 36.00917 14.24768 9996 ft 272 kts 304°
2026-05-07 14:05 36.02157 14.22893 10271 ft 293 kts 304°
2026-05-07 14:06 36.03533 14.20894 10447 ft 319 kts 310°
2026-05-07 14:06 36.05299 14.19122 10887 ft 335 kts 320°
2026-05-07 14:06 36.07214 14.17457 11528 ft 339 kts 319°
2026-05-07 14:06 36.09144 14.15761 12185 ft 342 kts 319°
2026-05-07 14:07 36.11088 14.14035 12840 ft 345 kts 318°
2026-05-07 14:07 36.13045 14.12289 13493 ft 348 kts 318°
2026-05-07 14:07 36.15023 14.10529 14079 ft 352 kts 318°
2026-05-07 14:07 36.17025 14.08750 14643 ft 356 kts 319°
2026-05-07 14:08 36.19043 14.06959 15245 ft 358 kts 318°
2026-05-07 14:08 36.21078 14.05157 15860 ft 360 kts 318°
2026-05-07 14:08 36.23119 14.03350 16480 ft 361 kts 318°
2026-05-07 14:08 36.25166 14.01533 17114 ft 363 kts 317°
2026-05-07 14:09 36.27193 13.99731 17729 ft 364 kts 317°
2026-05-07 14:09 36.29256 13.97893 18311 ft 366 kts 317°
2026-05-07 14:09 36.31329 13.96045 18794 ft 369 kts 317°
2026-05-07 14:09 36.33424 13.94177 19265 ft 373 kts 317°
2026-05-07 14:10 36.35544 13.92285 19742 ft 377 kts 317°
2026-05-07 14:10 36.37681 13.90375 20197 ft 380 kts 317°
2026-05-07 14:10 36.39839 13.88446 20656 ft 384 kts 317°
2026-05-07 14:10 36.42020 13.86499 21107 ft 388 kts 317°
2026-05-07 14:11 36.44226 13.84529 21592 ft 392 kts 317°
2026-05-07 14:11 36.46449 13.82542 22041 ft 395 kts 317°
2026-05-07 14:11 36.48690 13.80537 22477 ft 398 kts 317°
2026-05-07 14:11 36.50947 13.78517 22904 ft 401 kts 317°
2026-05-07 14:12 36.53219 13.76480 23328 ft 404 kts 317°
2026-05-07 14:12 36.55505 13.74428 23683 ft 407 kts 317°
2026-05-07 14:12 36.57806 13.72363 24043 ft 409 kts 317°
2026-05-07 14:12 36.60115 13.70287 24391 ft 410 kts 316°
2026-05-07 14:13 36.62434 13.68199 24750 ft 412 kts 316°
2026-05-07 14:13 36.64763 13.66100 25102 ft 413 kts 316°
2026-05-07 14:13 36.67068 13.64026 25438 ft 415 kts 316°
2026-05-07 14:13 36.69415 13.61911 25796 ft 416 kts 316°
2026-05-07 14:14 36.71759 13.59797 26205 ft 416 kts 316°
2026-05-07 14:14 36.74105 13.57682 26556 ft 416 kts 316°
2026-05-07 14:14 36.76455 13.55558 26892 ft 418 kts 316°
2026-05-07 14:14 36.78811 13.53431 27215 ft 419 kts 315°
2026-05-07 14:15 36.81177 13.51292 27529 ft 420 kts 315°
2026-05-07 14:15 36.83543 13.49147 27837 ft 421 kts 315°
2026-05-07 14:15 36.85923 13.46984 28119 ft 423 kts 315°
2026-05-07 14:15 36.88309 13.44817 28407 ft 425 kts 315°
2026-05-07 14:16 36.90706 13.42643 28682 ft 426 kts 315°
2026-05-07 14:16 36.93109 13.40465 28947 ft 427 kts 315°
2026-05-07 14:16 36.95522 13.38276 29219 ft 428 kts 315°
2026-05-07 14:16 36.97933 13.36083 29490 ft 430 kts 314°
2026-05-07 14:17 37.00357 13.33874 29721 ft 431 kts 314°
2026-05-07 14:17 37.02787 13.31656 29940 ft 433 kts 314°
2026-05-07 14:17 37.05218 13.29437 30180 ft 432 kts 314°
2026-05-07 14:17 37.07645 13.27222 30464 ft 431 kts 314°
2026-05-07 14:18 37.10031 13.25043 30737 ft 430 kts 314°
2026-05-07 14:18 37.12441 13.22840 31004 ft 429 kts 314°
2026-05-07 14:18 37.14847 13.20638 31271 ft 428 kts 314°
2026-05-07 14:18 37.17249 13.18439 31550 ft 427 kts 314°
2026-05-07 14:19 37.19641 13.16245 31815 ft 426 kts 314°
2026-05-07 14:19 37.22033 13.14046 32118 ft 425 kts 314°
2026-05-07 14:19 37.24420 13.11853 32331 ft 426 kts 314°
2026-05-07 14:19 37.26818 13.09647 32511 ft 428 kts 314°
2026-05-07 14:20 37.29216 13.07443 32753 ft 427 kts 314°
2026-05-07 14:20 37.31632 13.05257 33011 ft 430 kts 317°
2026-05-07 14:20 37.34294 13.03430 33266 ft 441 kts 327°
2026-05-07 14:20 37.37239 13.02177 33542 ft 454 kts 337°
2026-05-07 14:21 37.40399 13.01528 33794 ft 462 kts 342°
2026-05-07 14:21 37.46762 13.00482 33868 ft 460 kts 342°
2026-05-07 14:22 37.53049 12.99414 33871 ft 459 kts 342°
2026-05-07 14:22 37.59415 12.98316 33869 ft 459 kts 342°
2026-05-07 14:23 37.65747 12.97229 33867 ft 459 kts 342°
2026-05-07 14:23 37.72044 12.96159 33869 ft 459 kts 342°
2026-05-07 14:24 37.78376 12.95082 33869 ft 459 kts 342°
2026-05-07 14:24 37.84711 12.94003 33866 ft 459 kts 342°
2026-05-07 14:25 37.91041 12.92921 33863 ft 459 kts 342°
2026-05-07 14:25 37.97371 12.91829 33880 ft 459 kts 341°
2026-05-07 14:26 38.03707 12.90734 33873 ft 459 kts 341°
2026-05-07 14:26 38.10041 12.89649 33874 ft 459 kts 341°
2026-05-07 14:27 38.16369 12.88563 33871 ft 459 kts 341°
2026-05-07 14:27 38.22700 12.87470 33902 ft 459 kts 340°
2026-05-07 14:28 38.29019 12.86379 33896 ft 458 kts 341°
2026-05-07 14:28 38.35327 12.85286 33894 ft 457 kts 340°
2026-05-07 14:29 38.41627 12.84186 33913 ft 457 kts 341°
2026-05-07 14:29 38.47919 12.83093 33905 ft 457 kts 341°
2026-05-07 14:30 38.54218 12.81996 33905 ft 456 kts 341°
2026-05-07 14:30 38.60511 12.80891 33899 ft 457 kts 341°
2026-05-07 14:31 38.66770 12.79791 33908 ft 457 kts 341°
2026-05-07 14:31 38.73075 12.78682 33892 ft 458 kts 341°
2026-05-07 14:32 38.79399 12.77575 33894 ft 458 kts 341°
2026-05-07 14:32 38.85721 12.76460 33894 ft 460 kts 340°
2026-05-07 14:33 38.92075 12.75342 33892 ft 462 kts 340°
2026-05-07 14:33 38.98457 12.74221 33888 ft 463 kts 340°
2026-05-07 14:34 39.03775 12.73286 33887 ft 464 kts 340°
2026-05-07 14:34 39.11256 12.71952 33930 ft 464 kts 340°
2026-05-07 14:35 39.17611 12.70820 33934 ft 463 kts 339°
2026-05-07 14:35 39.22960 12.69868 33932 ft 463 kts 339°
2026-05-07 14:36 39.29334 12.68737 33932 ft 462 kts 339°
2026-05-07 14:36 39.35705 12.67601 33956 ft 462 kts 338°
2026-05-07 14:37 39.42069 12.66469 33948 ft 461 kts 338°
2026-05-07 14:37 39.51539 12.64779 33946 ft 459 kts 338°
2026-05-07 14:38 39.57871 12.63633 33963 ft 458 kts 338°